Regional Weather Roundup
Issued by NWS Green Bay, WI

Home | Current Version | Previous Version | Text Only | Print | Product List | Glossary On
Versions: 1 2 3 4 5 6 7 8 9 10 11 12 13 14 15 16 17 18 19 20 21 22 23 24 25 26 27 28 29 30 31 32 33 34 35 36 37 38 39 40 41 42 43 44 45 46 47 48 49 50
000
ASUS43 KGRB 200559
RWRGRB

NORTH-CENTRAL AND NORTHEAST WISCONSIN REGIONAL WEATHER ROUNDUP
NATIONAL WEATHER SERVICE GREEN BAY WI
1200 AM CST SAT DEC 20 2014

WIZ005-009-010>012-018-019-200700-
NORTH CENTRAL WISCONSIN

CITY           SKY/WX    TMP DP  RH WIND       PRES   REMARKS
IRONWOOD       CLOUDY    25  21  86 CALM      30.15F
MANITOWISH WTR NOT AVBL
ARBOR VITAE    NOT AVBL
EAGLE RIVER    NOT AVBL
LAND O LAKES   NOT AVBL
RHINELANDER    CLOUDY    20  18  92 CALM      30.18F
PHILLIPS       CLOUDY    23  21  93 S3        30.17F
ANTIGO         NOT AVBL
TOMAHAWK       NOT AVBL
MERRILL        NOT AVBL
$$

WIZ013-073-200700-
NORTHEAST WISCONSIN

CITY           SKY/WX    TMP DP  RH WIND       PRES   REMARKS
IRON MOUNTAIN  CLOUDY    15  12  88 CALM      30.21S
MARINETTE      PTCLDY    14  10  85 CALM      30.25F
$$

WIZ017-030-035>037-045-200700-
CENTRAL WISCONSIN

CITY           SKY/WX    TMP DP  RH WIND       PRES   REMARKS
MEDFORD        NOT AVBL
WAUSAU         CLOUDY    23  20  88 S3        30.20F
MOSINEE        NOT AVBL
MARSHFIELD     CLOUDY    24  20  84 S8        30.21F
WISC RAPIDS    CLOUDY    22  18  85 S3        30.26R
STEVENS POINT  NOT AVBL
WAUPACA        NOT AVBL
SHAWANO        NOT AVBL
CLINTONVILLE   PTCLDY    19  18  93 CALM      30.26S
$$

WIZ038-039-048-051-200700-
FOX VALLEY

CITY           SKY/WX    TMP DP  RH WIND       PRES   REMARKS
NWS GREEN BAY  PTCLDY    20  18  92 S3        30.27R
APPLETON       NOT AVBL
OSHKOSH        PTCLDY    20  17  88 CALM      30.26S
FOND DU LAC    PTCLDY    20  16  84 CALM      30.26S
$$

WIZ022-050-052-200700-
EAST CENTRAL WISCONSIN

CITY           SKY/WX    TMP DP  RH WIND       PRES   REMARKS
STURGEON BAY   PTCLDY    19  16  86 CALM      30.27S
MANITOWOC      NOT AVBL
SHEBOYGAN      CLOUDY    28  21  75 NW6       30.26R
$$

LMZ563-521-522-541>543-200700-
LAKESHORE

STATION/POSITION TIME  TEMP    WIND        PRES    VSBY  WAVE
                       AIR SEA DIR/SP/G                  HT/PER
                 (UTC) (F)     (DEG/KT/KT) (MB)    (MI)  (FT/S)
SHEBOYGAN LKSHOR 0500   29 34  300/  6/  6 1025.7R
KEWAUNEE LKSHORE 0500   26     300/  3/  6 1023.9R
NORTHPORT PIER   0500   22     210/  2/  3 1024.7F
CHAMBERS ISLAND  0500   19     130/  2/  3 1024.7F
MENOMINEE LKSHOR 0500   23     230/  3/  4 1025.4S
$$



USA.gov is the U.S. government's official web portal to all federal, state and local government web resources and services.